Location: Frizzleburg
(41.0764°N, 80.4548°W)
Time: 18:47:40
(UTC+00:00)

CZ-4B R/B - Pass Details

Date: 17 November 2019
Orbit: 809 x 882 km, 99.1° (Epoch: 11 December)

Event Time Altitude Azimuth Distance (km) Brightness Sun altitude
Rises 10:38:14 0° 18° (NNE) 3,368 6.4 -17.6°
Reaches altitude 10° 10:40:37 10° 23° (NNE) 2,441 5.7 -17.1°
Maximum altitude 10:45:56 56° 101° (ESE) 990 3.9 -16.2°
Drops below altitude 10° 10:51:18 10° 180° (S) 2,471 5.8 -15.2°
Sets 10:53:44 0° 184° (S) 3,414 6.5 -14.7°
